,,,PA_Meas_PMT16A,,PR_Meas_QMR101_102,,RH_Meas_QMH101,,SR_Meas_QMS101,,TA_Meas_QMH101,,GenWind,,GenWind,
date,time,status,PA,status,PR,status,RH,status,SR,status,TA,status,DirAvg,status,SpdAvg,
2011-05-22, 00:00:04,VALID,1000.16,VALID,0,VALID,92.944,VALID,0,VALID,24.111,VALID,313,VALID,1.06641,
2011-05-22, 00:01:04,VALID,1000.14,VALID,0,VALID,92.9364,VALID,0,VALID,24.1128,VALID,322,VALID,1.55938,
2011-05-22, 00:02:04,VALID,1000.14,VALID,0,VALID,92.9364,VALID,0,VALID,24.0933,VALID,301,VALID,1.46133,
2011-05-22, 00:03:04,VALID,1000.12,VALID,0,VALID,92.9288,VALID,0,VALID,24.072,VALID,292,VALID,0.225781,
2011-05-22, 00:04:04,VALID,1000.11,VALID,0,VALID,92.9517,VALID,0,VALID,24.072,VALID,276,VALID,0,
2011-05-22, 00:05:04,VALID,1000.14,VALID,0,VALID,92.9593,VALID,0,VALID,24.1128,VALID,287,VALID,0.701172,
2011-05-22, 00:06:04,VALID,1000.08,VALID,0,VALID,92.9517,VALID,0,VALID,24.111,VALID,287,VALID,0.284766,
2011-05-22, 00:07:04,VALID,1000.08,VALID,0,VALID,92.9517,VALID,0,VALID,24.111,VALID,287,VALID,0,
2011-05-22, 00:08:04,VALID,1000.08,VALID,0,VALID,92.9593,VALID,0,VALID,24.111,VALID,288,VALID,0.223047,
2011-05-22, 00:09:04,VALID,1000.05,VALID,0,VALID,92.9669,VALID,0,VALID,24.0915,VALID,303,VALID,0.666797,
2011-05-22, 00:10:04,VALID,1000.04,VALID,0,VALID,92.9745,VALID,0,VALID,24.1128,VALID,286,VALID,0.340234,
2011-05-22, 00:11:04,VALID,1000.01,VALID,0,VALID,92.9745,VALID,0,VALID,24.1128,VALID,286,VALID,0,
2011-05-22, 00:12:04,VALID,1000.01,VALID,0,VALID,92.9593,VALID,0,VALID,24.1324,VALID,272,VALID,0.613281,
2011-05-22, 00:13:04,VALID,999.996,VALID,0,VALID,92.944,VALID,0,VALID,24.1324,VALID,272,VALID,0.458203,
2011-05-22, 00:14:04,VALID,1000.01,VALID,0,VALID,92.944,VALID,0,VALID,24.111,VALID,272,VALID,0,
2011-05-22, 00:15:04,VALID,1000.04,VALID,0,VALID,92.9288,VALID,0,VALID,24.111,VALID,321,VALID,0.511328,
2011-05-22, 00:16:04,VALID,1000.05,VALID,0,VALID,92.9745,VALID,0,VALID,24.15,VALID,281,VALID,0.901953,
2011-05-22, 00:17:04,VALID,1000.11,VALID,0,VALID,92.9822,VALID,0,VALID,24.1714,VALID,15,VALID,2.06211,
2011-05-22, 00:18:04,VALID,1000.14,VALID,0,VALID,92.9822,VALID,0,VALID,24.15,VALID,9,VALID,1.63437,
2011-05-22, 00:19:04,VALID,1000.15,VALID,0,VALID,92.9745,VALID,0,VALID,24.111,VALID,357,VALID,1.17031,
2011-05-22, 00:20:04,VALID,1000.15,VALID,0,VALID,92.9898,VALID,0,VALID,24.0915,VALID,360,VALID,0.732422,
2011-05-22, 00:21:04,VALID,1000.13,VALID,0,VALID,92.9745,VALID,0,VALID,24.0915,VALID,14,VALID,0.820703,
2011-05-22, 00:22:04,VALID,1000.14,VALID,0,VALID,92.9593,VALID,0,VALID,24.111,VALID,4,VALID,1.01875,
2011-05-22, 00:23:04,VALID,1000.13,VALID,0,VALID,92.9669,VALID,0,VALID,24.1519,VALID,42,VALID,1.35,
2011-05-22, 00:24:04,VALID,1000.12,VALID,0,VALID,92.944,VALID,0,VALID,24.1714,VALID,35,VALID,0.935547,
2011-05-22, 00:25:04,VALID,1000.11,VALID,0,VALID,92.9135,VALID,0,VALID,24.1714,VALID,43,VALID,0.877344,
2011-05-22, 00:26:04,VALID,1000.14,VALID,0,VALID,92.883,VALID,0,VALID,24.2104,VALID,34,VALID,1.11563,
2011-05-22, 00:27:04,VALID,1000.13,VALID,0,VALID,92.8525,VALID,0,VALID,24.1891,VALID,18,VALID,0.905859,
2011-05-22, 00:28:04,VALID,1000.1,VALID,0,VALID,92.8143,VALID,0,VALID,24.2104,VALID,11,VALID,0.701953,
2011-05-22, 00:29:04,VALID,1000.08,VALID,0,VALID,92.7762,VALID,0,VALID,24.2104,VALID,340,VALID,1.00078,
2011-05-22, 00:30:04,VALID,1000,VALID,0.5,VALID,92.7609,VALID,0,VALID,24.1872,VALID,10,VALID,0.915625,
2011-05-22, 00:31:04,VALID,999.998,VALID,0,VALID,92.7304,VALID,0,VALID,24.1696,VALID,2,VALID,0.95625,
2011-05-22, 00:32:04,VALID,999.999,VALID,0,VALID,92.7228,VALID,0,VALID,24.1696,VALID,20,VALID,0.741016,
2011-05-22, 00:33:04,VALID,999.99,VALID,0,VALID,92.7457,VALID,0,VALID,24.1891,VALID,340,VALID,2.17422,
2011-05-22, 00:34:04,VALID,999.95,VALID,0,VALID,92.7457,VALID,0,VALID,24.2067,VALID,6,VALID,2.88164,
2011-05-22, 00:35:04,VALID,999.99,VALID,0,VALID,92.7533,VALID,0,VALID,24.2848,VALID,5,VALID,2.40703,
2011-05-22, 00:36:04,VALID,999.92,VALID,0,VALID,92.6999,VALID,0,VALID,24.3043,VALID,15,VALID,3.34336,
2011-05-22, 00:37:04,VALID,999.973,VALID,0,VALID,92.6083,VALID,0,VALID,24.3238,VALID,14,VALID,2.46445,
2011-05-22, 00:38:04,VALID,999.952,VALID,0,VALID,92.5015,VALID,0,VALID,24.3842,VALID,7,VALID,2.57813,
2011-05-22, 00:39:04,VALID,999.936,VALID,0,VALID,92.41,VALID,0,VALID,24.4037,VALID,358,VALID,2.09531,
2011-05-22, 00:40:04,VALID,999.944,VALID,0,VALID,92.3108,VALID,0,VALID,24.4019,VALID,2,VALID,1.51641,
2011-05-22, 00:41:04,VALID,999.9,VALID,0.5,VALID,92.2497,VALID,0,VALID,24.4019,VALID,8,VALID,2.24141,
2011-05-22, 00:42:04,VALID,999.887,VALID,0,VALID,92.204,VALID,0,VALID,24.3824,VALID,7,VALID,2.3543,
2011-05-22, 00:43:04,VALID,999.835,VALID,0,VALID,92.1582,VALID,0,VALID,24.4037,VALID,26,VALID,2.58867,
2011-05-22, 00:44:04,VALID,999.831,VALID,0,VALID,92.1277,VALID,0,VALID,24.4037,VALID,358,VALID,1.99414,
2011-05-22, 00:45:04,VALID,999.815,VALID,0,VALID,92.0895,VALID,0,VALID,24.4037,VALID,359,VALID,1.68516,
2011-05-22, 00:46:04,VALID,999.817,VALID,0,VALID,92.059,VALID,0,VALID,24.3824,VALID,358,VALID,1.42266,
2011-05-22, 00:47:04,VALID,999.816,VALID,0,VALID,92.0437,VALID,0,VALID,24.4037,VALID,14,VALID,1.53906,
2011-05-22, 00:48:04,VALID,999.827,VALID,0,VALID,92.0437,VALID,0,VALID,24.4037,VALID,348,VALID,1.03828,
2011-05-22, 00:49:04,VALID,999.806,VALID,0,VALID,92.0285,VALID,0.112286,VALID,24.3629,VALID,349,VALID,1.34961,
2011-05-22, 00:50:04,VALID,999.78,VALID,0,VALID,92.0437,VALID,0,VALID,24.3629,VALID,349,VALID,0.851563,
2011-05-22, 00:51:04,VALID,999.764,VALID,0,VALID,92.0514,VALID,0.112286,VALID,24.3629,VALID,357,VALID,1.00781,
2011-05-22, 00:52:04,VALID,999.722,VALID,0,VALID,92.0361,VALID,0.112286,VALID,24.3433,VALID,18,VALID,1.10547,
2011-05-22, 00:53:04,VALID,999.702,VALID,0,VALID,92.0437,VALID,0.112286,VALID,24.3433,VALID,10,VALID,0.582031,
2011-05-22, 00:54:04,VALID,999.667,VALID,0,VALID,92.0743,VALID,0.112286,VALID,24.322,VALID,336,VALID,0.983594,
2011-05-22, 00:55:04,VALID,999.659,VALID,0,VALID,92.0743,VALID,0,VALID,24.3238,VALID,334,VALID,0.564844,
2011-05-22, 00:56:04,VALID,999.641,VALID,0,VALID,92.0819,VALID,0,VALID,24.3238,VALID,334,VALID,0.528906,
2011-05-22, 00:57:04,VALID,999.609,VALID,0,VALID,92.0895,VALID,0,VALID,24.3433,VALID,300,VALID,0.606641,
2011-05-22, 00:58:04,VALID,999.631,VALID,0,VALID,92.1124,VALID,0,VALID,24.3433,VALID,279,VALID,0.855078,
2011-05-22, 00:59:04,VALID,999.64,VALID,0,VALID,92.1277,VALID,0,VALID,24.3629,VALID,283,VALID,0.729688,
2011-05-22, 01:00:04,VALID,999.64,VALID,0,VALID,92.1124,VALID,0,VALID,24.3647,VALID,283,VALID,0.526172,
2011-05-22, 01:01:04,VALID,999.604,VALID,0,VALID,92.1124,VALID,0,VALID,24.3452,VALID,283,VALID,0.496875,
2011-05-22, 01:02:04,VALID,999.569,VALID,0,VALID,92.1124,VALID,0,VALID,24.3452,VALID,283,VALID,0,
2011-05-22, 01:03:04,VALID,999.526,VALID,0,VALID,92.0971,VALID,0,VALID,24.3452,VALID,283,VALID,0.339844,
2011-05-22, 01:04:04,VALID,999.492,VALID,0,VALID,92.1506,VALID,0,VALID,24.3452,VALID,241,VALID,0.397266,
2011-05-22, 01:05:04,VALID,999.493,VALID,0,VALID,92.1734,VALID,0,VALID,24.3257,VALID,205,VALID,0.541016,
2011-05-22, 01:06:04,VALID,999.493,VALID,0,VALID,92.2192,VALID,0,VALID,24.3257,VALID,205,VALID,0.496875,
2011-05-22, 01:07:04,VALID,999.489,VALID,0,VALID,92.2497,VALID,0,VALID,24.3257,VALID,156,VALID,0.558594,
2011-05-22, 01:08:04,VALID,999.464,VALID,0,VALID,92.2726,VALID,0,VALID,24.2866,VALID,156,VALID,0.173047,
2011-05-22, 01:09:04,VALID,999.513,VALID,0,VALID,92.265,VALID,0,VALID,24.3275,VALID,156,VALID,0,
2011-05-22, 01:10:04,VALID,999.49,VALID,0,VALID,92.3108,VALID,0,VALID,24.3062,VALID,156,VALID,0.335156,
2011-05-22, 01:11:04,VALID,999.515,VALID,0,VALID,92.326,VALID,0,VALID,24.3062,VALID,134,VALID,0.880859,
2011-05-22, 01:12:04,VALID,999.461,VALID,0,VALID,92.3566,VALID,0,VALID,24.3257,VALID,135,VALID,0.811719,
2011-05-22, 01:13:04,VALID,999.453,VALID,0,VALID,92.41,VALID,0,VALID,24.3257,VALID,135,VALID,0.962891,
2011-05-22, 01:14:04,VALID,999.439,VALID,0,VALID,92.4176,VALID,0,VALID,24.3062,VALID,135,VALID,0.873047,
2011-05-22, 01:15:04,VALID,999.467,VALID,0,VALID,92.471,VALID,0,VALID,24.3257,VALID,135,VALID,0.803516,
2011-05-22, 01:16:04,VALID,999.425,VALID,0,VALID,92.5168,VALID,0,VALID,24.3257,VALID,139,VALID,0.930859,
2011-05-22, 01:17:04,VALID,999.407,VALID,0,VALID,92.5626,VALID,0,VALID,24.347,VALID,153,VALID,1.24258,
2011-05-22, 01:18:04,VALID,999.422,VALID,0,VALID,92.5854,VALID,0,VALID,24.3257,VALID,152,VALID,0.869922,
2011-05-22, 01:19:04,VALID,999.398,VALID,0,VALID,92.6312,VALID,0,VALID,24.3257,VALID,150,VALID,0.998828,
2011-05-22, 01:20:04,VALID,999.382,VALID,0,VALID,92.6541,VALID,0,VALID,24.3062,VALID,150,VALID,0.854688,
2011-05-22, 01:21:04,VALID,999.364,VALID,0,VALID,92.677,VALID,0,VALID,24.3257,VALID,150,VALID,0.929297,
2011-05-22, 01:22:04,VALID,999.374,VALID,0,VALID,92.6846,VALID,0,VALID,24.3257,VALID,150,VALID,1.00508,
2011-05-22, 01:23:04,VALID,999.369,VALID,0,VALID,92.6694,VALID,0,VALID,24.3062,VALID,138,VALID,1.10078,
2011-05-22, 01:24:04,VALID,999.35,VALID,0,VALID,92.7075,VALID,0,VALID,24.3275,VALID,138,VALID,1.00898,
2011-05-22, 01:25:04,VALID,999.34,VALID,0,VALID,92.7304,VALID,0,VALID,24.3062,VALID,138,VALID,0.841797,
2011-05-22, 01:26:04,VALID,999.334,VALID,0,VALID,92.738,VALID,0,VALID,24.3257,VALID,138,VALID,0.735547,
2011-05-22, 01:27:04,VALID,999.302,VALID,0,VALID,92.7685,VALID,0,VALID,24.347,VALID,131,VALID,0.775,
2011-05-22, 01:28:04,VALID,999.274,VALID,0,VALID,92.7838,VALID,0,VALID,24.3257,VALID,131,VALID,0.710156,
2011-05-22, 01:29:04,VALID,999.271,VALID,0,VALID,92.8067,VALID,0,VALID,24.347,VALID,131,VALID,0.683203,
2011-05-22, 01:30:04,VALID,999.242,VALID,0,VALID,92.8372,VALID,0,VALID,24.3238,VALID,131,VALID,0.716797,
2011-05-22, 01:31:04,VALID,999.238,VALID,0,VALID,92.8525,VALID,0,VALID,24.3238,VALID,144,VALID,0.923437,
2011-05-22, 01:32:04,VALID,999.21,VALID,0,VALID,92.883,VALID,0,VALID,24.3238,VALID,152,VALID,1.13711,
2011-05-22, 01:33:04,VALID,999.22,VALID,0,VALID,92.883,VALID,0,VALID,24.3452,VALID,162,VALID,1.58164,
2011-05-22, 01:34:04,VALID,999.209,VALID,0,VALID,92.9364,VALID,0,VALID,24.3433,VALID,167,VALID,1.83086,
2011-05-22, 01:35:04,VALID,999.182,VALID,0,VALID,92.9288,VALID,0,VALID,24.3824,VALID,172,VALID,1.99297,
2011-05-22, 01:36:04,VALID,999.162,VALID,0,VALID,92.9669,VALID,0,VALID,24.3824,VALID,171,VALID,1.975,
2011-05-22, 01:37:04,VALID,999.139,VALID,0,VALID,92.9517,VALID,0,VALID,24.4019,VALID,173,VALID,1.82187,
2011-05-22, 01:38:04,VALID,999.122,VALID,0,VALID,92.9593,VALID,0,VALID,24.4019,VALID,167,VALID,1.80273,
2011-05-22, 01:39:04,VALID,999.078,VALID,0,VALID,92.9669,VALID,0,VALID,24.3824,VALID,175,VALID,1.66953,
2011-05-22, 01:40:04,VALID,999.032,VALID,0,VALID,92.9517,VALID,0,VALID,24.4019,VALID,178,VALID,1.79492,
2011-05-22, 01:41:04,VALID,999.025,VALID,0,VALID,92.9517,VALID,0,VALID,24.4214,VALID,182,VALID,1.50547,
2011-05-22, 01:42:04,VALID,999.037,VALID,0,VALID,92.9517,VALID,0,VALID,24.4623,VALID,188,VALID,1.72891,
2011-05-22, 01:43:04,VALID,999.038,VALID,0,VALID,92.9364,VALID,0.112286,VALID,24.4214,VALID,188,VALID,1.86602,
2011-05-22, 01:44:04,VALID,999.07,VALID,0,VALID,92.944,VALID,0,VALID,24.4428,VALID,183,VALID,1.87266,
2011-05-22, 01:45:04,VALID,999.071,VALID,0,VALID,92.9211,VALID,0,VALID,24.4214,VALID,174,VALID,2.04883,
2011-05-22, 01:46:04,VALID,999.104,VALID,0,VALID,92.8983,VALID,0,VALID,24.4019,VALID,181,VALID,1.85469,
2011-05-22, 01:47:04,VALID,999.09,VALID,0,VALID,92.8983,VALID,0,VALID,24.4214,VALID,183,VALID,1.79023,
2011-05-22, 01:48:04,VALID,999.1,VALID,0,VALID,92.8448,VALID,0,VALID,24.4019,VALID,181,VALID,1.91602,
2011-05-22, 01:49:04,VALID,999.043,VALID,0,VALID,92.8525,VALID,0,VALID,24.4019,VALID,181,VALID,1.76094,
2011-05-22, 01:50:04,VALID,999.093,VALID,0,VALID,92.8296,VALID,0,VALID,24.3824,VALID,174,VALID,1.69258,
2011-05-22, 01:51:04,VALID,999.103,VALID,0,VALID,92.8372,VALID,0,VALID,24.4019,VALID,173,VALID,1.67773,
2011-05-22, 01:52:04,VALID,999.052,VALID,0,VALID,92.8067,VALID,0.112286,VALID,24.4019,VALID,182,VALID,1.5418,
2011-05-22, 01:53:04,VALID,999.077,VALID,0,VALID,92.8067,VALID,0,VALID,24.4037,VALID,181,VALID,1.53867,
2011-05-22, 01:54:04,VALID,999.06,VALID,0,VALID,92.7838,VALID,0,VALID,24.3824,VALID,184,VALID,1.45391,
2011-05-22, 01:55:04,VALID,999.049,VALID,0,VALID,92.738,VALID,0.112286,VALID,24.3824,VALID,180,VALID,1.30859,
2011-05-22, 01:56:04,VALID,999.002,VALID,0,VALID,92.7228,VALID,0,VALID,24.3629,VALID,174,VALID,1.04727,
2011-05-22, 01:57:04,VALID,998.99,VALID,0,VALID,92.6923,VALID,0,VALID,24.4037,VALID,173,VALID,0.745703,
2011-05-22, 01:58:04,VALID,998.95,VALID,0,VALID,92.6465,VALID,0,VALID,24.3629,VALID,172,VALID,0.821094,
2011-05-22, 01:59:04,VALID,998.945,VALID,0,VALID,92.6312,VALID,0,VALID,24.3824,VALID,172,VALID,0.866406,
2011-05-22, 02:00:04,VALID,998.907,VALID,0,VALID,92.6083,VALID,0,VALID,24.3629,VALID,166,VALID,0.726953,
2011-05-22, 02:01:04,VALID,998.918,VALID,0,VALID,92.5702,VALID,0,VALID,24.3629,VALID,142,VALID,0.48125,
2011-05-22, 02:02:04,VALID,998.962,VALID,0,VALID,92.5473,VALID,0,VALID,24.3824,VALID,175,VALID,0.764063,
2011-05-22, 02:03:04,VALID,998.989,VALID,0,VALID,92.5015,VALID,0,VALID,24.3824,VALID,176,VALID,0.767578,
2011-05-22, 02:04:04,VALID,999.014,VALID,0,VALID,92.5015,VALID,0.112286,VALID,24.3824,VALID,172,VALID,0.443359,
2011-05-22, 02:05:04,VALID,999.023,VALID,0,VALID,92.471,VALID,0,VALID,24.4019,VALID,172,VALID,0.785156,
2011-05-22, 02:06:04,VALID,998.984,VALID,0,VALID,92.4252,VALID,0,VALID,24.4233,VALID,172,VALID,0.425781,
2011-05-22, 02:07:04,VALID,998.998,VALID,0,VALID,92.41,VALID,0,VALID,24.4019,VALID,172,VALID,0.310156,
2011-05-22, 02:08:04,VALID,998.954,VALID,0,VALID,92.3871,VALID,0,VALID,24.4019,VALID,172,VALID,0.332812,
2011-05-22, 02:09:04,VALID,998.947,VALID,0,VALID,92.4176,VALID,0,VALID,24.4214,VALID,172,VALID,0.317969,
2011-05-22, 02:10:04,VALID,998.931,VALID,0,VALID,92.41,VALID,0,VALID,24.4233,VALID,172,VALID,0.0695312,
2011-05-22, 02:11:04,VALID,998.936,VALID,0,VALID,92.3947,VALID,0,VALID,24.4019,VALID,172,VALID,0,
2011-05-22, 02:12:04,VALID,998.894,VALID,0,VALID,92.3947,VALID,0,VALID,24.4019,VALID,172,VALID,0,
2011-05-22, 02:13:04,VALID,998.906,VALID,0,VALID,92.4252,VALID,0,VALID,24.3824,VALID,172,VALID,0,
2011-05-22, 02:14:04,VALID,998.899,VALID,0,VALID,92.4252,VALID,0,VALID,24.4037,VALID,172,VALID,0.545703,
2011-05-22, 02:15:04,VALID,998.889,VALID,0,VALID,92.4023,VALID,0.112286,VALID,24.4037,VALID,172,VALID,0.501562,
2011-05-22, 02:16:04,VALID,998.863,VALID,0,VALID,92.4634,VALID,0,VALID,24.3824,VALID,172,VALID,0.732031,
2011-05-22, 02:17:04,VALID,998.844,VALID,0,VALID,92.4557,VALID,0,VALID,24.4019,VALID,172,VALID,0.583203,
2011-05-22, 02:18:04,VALID,998.82,VALID,0,VALID,92.4786,VALID,0,VALID,24.4214,VALID,172,VALID,0.6125,
2011-05-22, 02:19:04,VALID,998.79,VALID,0,VALID,92.4786,VALID,0.112286,VALID,24.4019,VALID,172,VALID,0.625391,
2011-05-22, 02:20:04,VALID,998.749,VALID,0,VALID,92.4939,VALID,0,VALID,24.3824,VALID,172,VALID,0.564062,
2011-05-22, 02:21:04,VALID,998.729,VALID,0,VALID,92.4863,VALID,0,VALID,24.3824,VALID,172,VALID,0.704297,
2011-05-22, 02:22:04,VALID,998.717,VALID,0,VALID,92.4557,VALID,0,VALID,24.4037,VALID,172,VALID,0.601953,
2011-05-22, 02:23:04,VALID,998.681,VALID,0,VALID,92.4557,VALID,0,VALID,24.4019,VALID,172,VALID,0.565234,
2011-05-22, 02:24:04,VALID,998.638,VALID,0,VALID,92.4557,VALID,0,VALID,24.4019,VALID,172,VALID,0.59375,
2011-05-22, 02:25:04,VALID,998.606,VALID,0,VALID,92.471,VALID,0,VALID,24.3824,VALID,172,VALID,0.677344,
2011-05-22, 02:26:04,VALID,998.605,VALID,0,VALID,92.4634,VALID,0.112286,VALID,24.4037,VALID,151,VALID,0.780469,
2011-05-22, 02:27:04,VALID,998.597,VALID,0,VALID,92.5015,VALID,0,VALID,24.3824,VALID,151,VALID,0.674609,
2011-05-22, 02:28:04,VALID,998.578,VALID,0,VALID,92.5091,VALID,0,VALID,24.3629,VALID,151,VALID,0.578906,
2011-05-22, 02:29:04,VALID,998.553,VALID,0,VALID,92.5091,VALID,0.112286,VALID,24.3824,VALID,151,VALID,0.642969,
2011-05-22, 02:30:04,VALID,998.564,VALID,0,VALID,92.5473,VALID,0,VALID,24.3433,VALID,151,VALID,0.519922,
2011-05-22, 02:31:04,VALID,998.539,VALID,0,VALID,92.5549,VALID,0,VALID,24.3433,VALID,151,VALID,0.470313,
2011-05-22, 02:32:04,VALID,998.554,VALID,0,VALID,92.5626,VALID,0,VALID,24.3238,VALID,151,VALID,0.465234,
2011-05-22, 02:33:04,VALID,998.556,VALID,0,VALID,92.5931,VALID,0,VALID,24.3433,VALID,151,VALID,0,
2011-05-22, 02:34:04,VALID,998.585,VALID,0,VALID,92.5931,VALID,0,VALID,24.3433,VALID,151,VALID,0,
2011-05-22, 02:35:04,VALID,998.532,VALID,0,VALID,92.5778,VALID,0,VALID,24.3238,VALID,151,VALID,0,
2011-05-22, 02:36:04,VALID,998.556,VALID,0,VALID,92.6083,VALID,0,VALID,24.3238,VALID,151,VALID,0,
2011-05-22, 02:37:04,VALID,998.538,VALID,0,VALID,92.6083,VALID,0,VALID,24.3043,VALID,151,VALID,0,
2011-05-22, 02:38:04,VALID,998.545,VALID,0,VALID,92.6465,VALID,0,VALID,24.3238,VALID,151,VALID,0,
2011-05-22, 02:39:04,VALID,998.524,VALID,0,VALID,92.6617,VALID,0,VALID,24.3043,VALID,151,VALID,0,
2011-05-22, 02:40:04,VALID,998.468,VALID,0,VALID,92.6923,VALID,0,VALID,24.3238,VALID,151,VALID,0,
2011-05-22, 02:41:04,VALID,998.473,VALID,0,VALID,92.7304,VALID,0,VALID,24.3238,VALID,151,VALID,0,
2011-05-22, 02:42:04,VALID,998.477,VALID,0,VALID,92.738,VALID,0,VALID,24.3043,VALID,151,VALID,0,
2011-05-22, 02:43:04,VALID,998.463,VALID,0,VALID,92.7685,VALID,0,VALID,24.3452,VALID,151,VALID,0,
2011-05-22, 02:44:04,VALID,998.456,VALID,0,VALID,92.8067,VALID,0,VALID,24.3238,VALID,151,VALID,0,
2011-05-22, 02:45:04,VALID,998.427,VALID,0,VALID,92.8067,VALID,0,VALID,24.3043,VALID,151,VALID,0,
2011-05-22, 02:46:04,VALID,998.451,VALID,0,VALID,92.8296,VALID,0,VALID,24.3043,VALID,139,VALID,0,
2011-05-22, 02:47:04,VALID,998.467,VALID,0,VALID,92.8296,VALID,0,VALID,24.2848,VALID,103,VALID,0,
2011-05-22, 02:48:04,VALID,998.445,VALID,0,VALID,92.8448,VALID,0,VALID,24.2866,VALID,95,VALID,0.484766,
2011-05-22, 02:49:04,VALID,998.513,VALID,0,VALID,92.8448,VALID,0.112286,VALID,24.2653,VALID,92,VALID,0.650781,
2011-05-22, 02:50:04,VALID,998.524,VALID,0,VALID,92.8448,VALID,0,VALID,24.2653,VALID,92,VALID,0.511328,
2011-05-22, 02:51:04,VALID,998.512,VALID,0,VALID,92.8372,VALID,0,VALID,24.2653,VALID,92,VALID,0.403516,
2011-05-22, 02:52:04,VALID,998.537,VALID,0,VALID,92.8372,VALID,0.112286,VALID,24.2653,VALID,92,VALID,0.394141,
2011-05-22, 02:53:04,VALID,998.512,VALID,0,VALID,92.8525,VALID,0,VALID,24.2458,VALID,92,VALID,0.344531,
2011-05-22, 02:54:04,VALID,998.506,VALID,0,VALID,92.8677,VALID,0,VALID,24.2653,VALID,92,VALID,0.305078,
2011-05-22, 02:55:04,VALID,998.503,VALID,0,VALID,92.8601,VALID,0,VALID,24.2263,VALID,92,VALID,0.255078,
2011-05-22, 02:56:04,VALID,998.483,VALID,0,VALID,92.8677,VALID,0,VALID,24.2263,VALID,92,VALID,0,
2011-05-22, 02:57:04,VALID,998.44,VALID,0,VALID,92.8754,VALID,0,VALID,24.2281,VALID,92,VALID,0,
2011-05-22, 02:58:04,VALID,998.366,VALID,0,VALID,92.883,VALID,0,VALID,24.2067,VALID,92,VALID,0,
2011-05-22, 02:59:04,VALID,998.371,VALID,0,VALID,92.9059,VALID,0,VALID,24.2281,VALID,92,VALID,0,
2011-05-22, 03:00:04,VALID,998.349,VALID,0,VALID,92.9364,VALID,0,VALID,24.2281,VALID,92,VALID,0,
2011-05-22, 03:01:04,VALID,998.329,VALID,0,VALID,92.9593,VALID,0,VALID,24.2263,VALID,92,VALID,0,
2011-05-22, 03:02:04,VALID,998.312,VALID,0,VALID,92.9822,VALID,0,VALID,24.2476,VALID,92,VALID,0,
2011-05-22, 03:03:04,VALID,998.323,VALID,0,VALID,93.0051,VALID,0,VALID,24.2476,VALID,92,VALID,0,
2011-05-22, 03:04:04,VALID,998.301,VALID,0,VALID,93.0127,VALID,0,VALID,24.2263,VALID,92,VALID,0,
2011-05-22, 03:05:04,VALID,998.293,VALID,0,VALID,93.0432,VALID,0,VALID,24.2476,VALID,92,VALID,0,
2011-05-22, 03:06:04,VALID,998.278,VALID,0,VALID,93.0661,VALID,0,VALID,24.2476,VALID,92,VALID,0,
2011-05-22, 03:07:04,VALID,998.276,VALID,0,VALID,93.0814,VALID,0,VALID,24.2067,VALID,92,VALID,0,
2011-05-22, 03:08:04,VALID,998.282,VALID,0,VALID,93.0814,VALID,0,VALID,24.2281,VALID,92,VALID,0,
2011-05-22, 03:09:04,VALID,998.254,VALID,0,VALID,93.1119,VALID,0,VALID,24.2067,VALID,92,VALID,0,
2011-05-22, 03:10:04,VALID,998.283,VALID,0,VALID,93.1271,VALID,0,VALID,24.2281,VALID,92,VALID,0,
2011-05-22, 03:11:04,VALID,998.255,VALID,0,VALID,93.1424,VALID,0,VALID,24.2281,VALID,92,VALID,0,
2011-05-22, 03:12:04,VALID,998.253,VALID,0,VALID,93.1577,VALID,0,VALID,24.2281,VALID,92,VALID,0,
2011-05-22, 03:13:04,VALID,998.249,VALID,0,VALID,93.1882,VALID,0,VALID,24.2281,VALID,92,VALID,0,
2011-05-22, 03:14:04,VALID,998.253,VALID,0,VALID,93.2034,VALID,0,VALID,24.1677,VALID,92,VALID,0,
2011-05-22, 03:15:04,VALID,998.211,VALID,0,VALID,93.2034,VALID,0,VALID,24.2086,VALID,92,VALID,0,
2011-05-22, 03:16:04,VALID,998.198,VALID,0,VALID,93.234,VALID,0,VALID,24.2086,VALID,92,VALID,0,
2011-05-22, 03:17:04,VALID,998.171,VALID,0,VALID,93.2645,VALID,0,VALID,24.2086,VALID,92,VALID,0,
2011-05-22, 03:18:04,VALID,998.155,VALID,0,VALID,93.2645,VALID,0,VALID,24.2086,VALID,92,VALID,0,
2011-05-22, 03:19:04,VALID,998.11,VALID,0,VALID,93.2645,VALID,0,VALID,24.2086,VALID,92,VALID,0,
2011-05-22, 03:20:04,VALID,998.084,VALID,0,VALID,93.2797,VALID,0,VALID,24.1891,VALID,102,VALID,0.430859,
2011-05-22, 03:21:04,VALID,998.073,VALID,0,VALID,93.2645,VALID,0,VALID,24.1482,VALID,110,VALID,0.654688,
2011-05-22, 03:22:04,VALID,998.065,VALID,0,VALID,93.295,VALID,0,VALID,24.1482,VALID,110,VALID,0.595312,
2011-05-22, 03:23:04,VALID,998.062,VALID,0,VALID,93.2874,VALID,0,VALID,24.1696,VALID,110,VALID,0.783984,
2011-05-22, 03:24:04,VALID,998.058,VALID,0,VALID,93.295,VALID,0,VALID,24.1891,VALID,110,VALID,0.660937,
2011-05-22, 03:25:04,VALID,998.07,VALID,0,VALID,93.3255,VALID,0,VALID,24.1872,VALID,110,VALID,0.466797,
2011-05-22, 03:26:04,VALID,998.052,VALID,0,VALID,93.3026,VALID,0,VALID,24.1891,VALID,110,VALID,0.342578,
2011-05-22, 03:27:04,VALID,998.078,VALID,0,VALID,93.295,VALID,0,VALID,24.2086,VALID,110,VALID,0.15,
2011-05-22, 03:28:04,VALID,998.066,VALID,0,VALID,93.3103,VALID,0,VALID,24.2086,VALID,110,VALID,0,
2011-05-22, 03:29:04,VALID,998.054,VALID,0,VALID,93.2874,VALID,0,VALID,24.2086,VALID,110,VALID,0,
2011-05-22, 03:30:04,VALID,998.036,VALID,0,VALID,93.2874,VALID,0,VALID,24.1891,VALID,110,VALID,0,
2011-05-22, 03:31:04,VALID,998.038,VALID,0,VALID,93.295,VALID,0,VALID,24.1891,VALID,110,VALID,0,
2011-05-22, 03:32:04,VALID,998.001,VALID,0,VALID,93.3103,VALID,0,VALID,24.2086,VALID,110,VALID,0,
2011-05-22, 03:33:04,VALID,998.016,VALID,0,VALID,93.3103,VALID,0,VALID,24.2086,VALID,110,VALID,0,
2011-05-22, 03:34:04,VALID,998.031,VALID,0,VALID,93.3026,VALID,0,VALID,24.2281,VALID,171,VALID,0,
2011-05-22, 03:35:04,VALID,998.012,VALID,0,VALID,93.2874,VALID,0,VALID,24.2476,VALID,171,VALID,0.272266,
2011-05-22, 03:36:04,VALID,997.997,VALID,0,VALID,93.3179,VALID,0,VALID,24.2458,VALID,192,VALID,0.545313,
2011-05-22, 03:37:04,VALID,998.032,VALID,0,VALID,93.3179,VALID,0,VALID,24.2866,VALID,192,VALID,0.279297,
2011-05-22, 03:38:04,VALID,998.056,VALID,0,VALID,93.3179,VALID,0,VALID,24.2866,VALID,192,VALID,0.2125,
2011-05-22, 03:39:04,VALID,998.063,VALID,0,VALID,93.3179,VALID,0,VALID,24.2866,VALID,192,VALID,0.310156,
2011-05-22, 03:40:04,VALID,998.077,VALID,0,VALID,93.3103,VALID,0,VALID,24.2671,VALID,192,VALID,0,
2011-05-22, 03:41:04,VALID,998.102,VALID,0,VALID,93.3103,VALID,0,VALID,24.2067,VALID,192,VALID,0,
2011-05-22, 03:42:04,VALID,998.111,VALID,0,VALID,93.295,VALID,0,VALID,24.1891,VALID,192,VALID,0,
2011-05-22, 03:43:04,VALID,998.13,VALID,0,VALID,93.295,VALID,0,VALID,24.1482,VALID,192,VALID,0,
2011-05-22, 03:44:04,VALID,998.149,VALID,0,VALID,93.3103,VALID,0,VALID,24.15,VALID,192,VALID,0,
2011-05-22, 03:45:04,VALID,998.183,VALID,0,VALID,93.2797,VALID,0,VALID,24.1092,VALID,192,VALID,0,
2011-05-22, 03:46:04,VALID,998.176,VALID,0,VALID,93.295,VALID,0,VALID,24.1092,VALID,192,VALID,0,
2011-05-22, 03:47:04,VALID,998.191,VALID,0,VALID,93.2874,VALID,0,VALID,24.0897,VALID,192,VALID,0,
2011-05-22, 03:48:04,VALID,998.194,VALID,0,VALID,93.3026,VALID,0,VALID,24.0701,VALID,192,VALID,0,